[[{"header":{"parameterUnit":"m.s-1","parameterCategory":1,"la1":30.2991,"la2":30.254,"lo1":-89.0895,"lo2":-89.0444,"dy":0.0017,"dx":0.0017,"nx":28,"ny":28,"refTime":"2025-06-14T21:00:00:Z","depth":0,"parameterNumber":2,"parameterNumberName":"U-component_of_WINDS"},"data":[0,0,0,0,0,0,0,0,0,0,0,0,0,0,0,0,0,0,0,0,0,0,0,0,0,0,0,0,0,0,0,0,0,0,0,0,0,0,0,0,0,0,0,0,0,0,0,0,0,0,0,0,0,0,0,0,0,0,0.2937,0.2939,0,0.3163,0.3165,0.3168,0.3292,0.3292,0.3293,0.3293,0.3532,0.3538,0.3544,0,0,0,0,0,0,0,0,0,0,0,0,0,0.262,0.2625,0.2937,0.294,0.2942,0.3162,0.3166,0.3169,0.3292,0.3292,0.3293,0.3293,0.353,0.3538,0.3545,0,0,0,0,0,0,0,0,0,0,0,0,0,0.2793,0.2627,0.2936,0.303,0.3041,0.3162,0.3166,0.3169,0.3292,0.3292,0.3293,0.3293,0.3528,0.3537,0.3546,0.3593,0,0,0.3574,0.3578,0,0,0,0,0,0,0,0,0.2783,0.2804,0.3014,0.3024,0.3036,0.3199,0.3142,0.3312,0.3292,0.3197,0.3293,0.3293,0.3422,0.344,0.3481,0.3604,0.3615,0.3575,0.358,0.3584,0.3587,0,0,0,0,0,0,0,0.2771,0.2796,0.3027,0.3016,0.303,0.3064,0.3089,0.3175,0.3304,0.3205,0.3215,0.3239,0.3428,0.3472,0.3488,0.3618,0.3574,0.3583,0.3588,0.3592,0.3793,0.3793,0,0,0,0,0,0,0.2743,0.2785,0.3019,0.3033,0.2908,0.3069,0.3097,0.3147,0.3304,0.3328,0.3239,0.3244,0.3456,0.3477,0.3497,0.3563,0.3584,0.3593,0.3598,0.3793,0.3793,0.3793,0,0,0,0,0,0,0.2735,0.2762,0.301,0.2912,0.2946,0.3074,0.3129,0.3151,0.3195,0.3329,0.3353,0.3259,0.3458,0.3484,0.3568,0.3573,0.3597,0.3605,0.3793,0.3793,0.3793,0.3694,0,0,0,0,0,0,0.2726,0.2759,0.2776,0.2911,0.295,0.3075,0.3129,0.3155,0.321,0.3219,0.3355,0.3378,0.346,0.3554,0.3577,0.3586,0.3612,0.3793,0.3793,0.3793,0.3697,0.369,0.3684,0,0,0,0,0,0.2714,0.2741,0.2776,0.2804,0.2974,0.3074,0.3097,0.3189,0.3209,0.3229,0.3315,0.3373,0.3568,0.3561,0.3589,0.36,0.3793,0.3793,0.3793,0.37,0.3692,0.3685,0,0,0,0,0,0,0.2606,0.276,0.2801,0.2872,0.2959,0.3095,0.3123,0.3177,0.3262,0.3268,0.3381,0.341,0.3484,0.3551,0.354,0.3655,0.3687,0.3692,0.3608,0.3601,0.3594,0.3576,0.362,0,0,0,0,0,0.259,0.2656,0.2789,0.2839,0.288,0.2993,0.3041,0.3103,0.3199,0.3237,0.333,0.3422,0.3505,0.3557,0.364,0.3708,0.374,0.373,0.3723,0.3717,0.372,0.3762,0.3759,0.3792,0.3792,0.3792,0,0,0.2559,0.2651,0.2687,0.2819,0.2894,0.2962,0.3024,0.3093,0.3146,0.3249,0.3333,0.3404,0.3515,0.3591,0.3629,0.3649,0.3719,0.3717,0.3711,0.3718,0.3761,0.3758,0.3755,0.3791,0.3791,0.3791,0,0,0.2536,0.2612,0.2662,0.2735,0.2846,0.2922,0.2933,0.3062,0.3112,0.3197,0.3276,0.3342,0.3481,0.3557,0.3614,0.362,0.3677,0.3645,0.3611,0.365,0.3647,0.3646,0.3648,0.3648,0.3647,0.3647,0.3647,0,0.2484,0.2586,0.2682,0.2746,0.2803,0.2897,0.295,0.3017,0.3151,0.3189,0.3209,0.3385,0.3467,0.3562,0.3563,0.3607,0.3625,0.3629,0.364,0.3639,0.3639,0.3642,0.3643,0.3642,0.3643,0.3643,0.3644,0,0.2517,0.2587,0.2615,0.2738,0.2798,0.2857,0.2963,0.3013,0.3071,0.3145,0.3232,0.3333,0.3438,0.3466,0.3524,0.357,0.3579,0.3617,0.3653,0.3629,0.3635,0.3637,0.3636,0.3637,0.3639,0.364,0,0,0.2432,0.2606,0.2615,0.2672,0.2802,0.286,0.2924,0.3024,0.3065,0.3155,0.3212,0.3327,0.3364,0.3428,0.3497,0.3531,0.353,0.3567,0.3571,0.3556,0.3587,0.3556,0.3556,0.3569,0.3569,0.357,0.3577,0,0.2427,0.2542,0.263,0.2713,0.278,0.2871,0.2927,0.3014,0.3085,0.3154,0.3235,0.3314,0.3357,0.3396,0.3435,0.3521,0.3537,0.3522,0.3625,0.3627,0.3593,0.3559,0.3526,0.3528,0.358,0.358,0.3581,0,0.2437,0.252,0.2608,0.2731,0.2763,0.2811,0.291,0.2975,0.3077,0.3126,0.3197,0.3268,0.3342,0.337,0.3474,0.3461,0.3509,0.3558,0.3561,0.3574,0.3602,0.357,0.3531,0.3531,0.3585,0.3585,0.3584,0,0.2365,0.25,0.2571,0.2617,0.2762,0.2794,0.2857,0.2958,0.3013,0.3101,0.3138,0.3235,0.3287,0.3361,0.3457,0.3468,0.3551,0.3587,0.3596,0.3593,0.3609,0.3606,0.3576,0.364,0.364,0.364,0.364,0,0.235,0.2401,0.254,0.2583,0.2643,0.2745,0.2803,0.2874,0.2964,0.3024,0.3111,0.3166,0.3288,0.336,0.3435,0.351,0.3534,0.3577,0.3597,0.3569,0.3563,0.3602,0.3604,0.364,0.364,0.364,0.364,0,0.228,0.2375,0.2458,0.2588,0.2622,0.2661,0.2774,0.2821,0.2897,0.2972,0.2996,0.3116,0.3204,0.3306,0.3429,0.348,0.3549,0.3578,0.3513,0.3525,0.3527,0.3525,0.352,0.3525,0.3584,0.3584,0.3583,0,0.2264,0.2304,0.2439,0.2484,0.2543,0.2616,0.2671,0.2774,0.2829,0.2948,0.2981,0.3075,0.3156,0.3293,0.3393,0.3487,0.3519,0.3511,0.3534,0.3505,0.3519,0.3515,0.352,0.3504,0.3503,0.3502,0.3501,0,0.2225,0.227,0.2345,0.2437,0.2501,0.2579,0.2661,0.2694,0.2815,0.2872,0.2962,0.3024,0.3148,0.3241,0.3348,0.3417,0.3479,0.3493,0.35,0.3472,0.3433,0.3454,0.3496,0.3493,0.3494,0.3494,0.3495,0.3495,0.2181,0.2222,0.2322,0.2404,0.2476,0.2551,0.2601,0.2682,0.2758,0.2865,0.2922,0.301,0.3113,0.3263,0.3329,0.3402,0.3423,0.3433,0.3436,0.3436,0.3428,0.3421,0.3422,0.3422,0.3423,0.3423,0.3423,0,0.2146,0.2215,0.2289,0.24,0.2465,0.2516,0.261,0.2661,0.2737,0.2826,0.2903,0.3007,0.3098,0.3204,0.3303,0.334,0.3372,0.3363,0.3361,0.3376,0.3404,0.3387,0.3336,0.3336,0.3336,0.3336,0.3336,0.3336,0.2136,0.2206,0.2263,0.2372,0.2442,0.2527,0.2576,0.2647,0.2718,0.2829,0.2903,0.2971,0.3069,0.3175,0.3261,0.329,0.3322,0.3305,0.3342,0.3366,0.3374,0.3381,0.3366,0.3311,0.3311,0.3309,0.3309,0.3308]},{"header":{"parameterUnit":"m.s-1","parameterCategory":1,"la1":30.2991,"la2":30.254,"lo1":-89.0895,"lo2":-89.0444,"dy":0.0017,"dx":0.0017,"nx":28,"ny":28,"refTime":"2025-06-14T21:00:00:Z","depth":0,"parameterNumber":3,"parameterNumberName":"V-component_of_WINDS"},"data":[0,0,0,0,0,0,0,0,0,0,0,0,0,0,0,0,0,0,0,0,0,0,0,0,0,0,0,0,0,0,0,0,0,0,0,0,0,0,0,0,0,0,0,0,0,0,0,0,0,0,0,0,0,0,0,0,0,0,1.681,1.6811,0,1.6883,1.6883,1.6884,1.6883,1.6882,1.6881,1.688,1.6955,1.6958,1.6961,0,0,0,0,0,0,0,0,0,0,0,0,0,1.6671,1.6674,1.681,1.6811,1.6812,1.6882,1.6883,1.6884,1.6883,1.6882,1.6881,1.688,1.6954,1.6958,1.6961,0,0,0,0,0,0,0,0,0,0,0,0,0,1.6736,1.6674,1.681,1.682,1.6821,1.6882,1.6884,1.6885,1.6883,1.6882,1.688,1.6879,1.6953,1.6957,1.6962,1.7018,0,0,1.6975,1.6977,0,0,0,0,0,0,0,0,1.6733,1.6741,1.6817,1.6819,1.6821,1.6872,1.6862,1.6929,1.6884,1.686,1.688,1.6878,1.6929,1.6935,1.6952,1.7021,1.7025,1.6975,1.6978,1.698,1.6981,0,0,0,0,0,0,0,1.6728,1.6738,1.6839,1.6819,1.6821,1.6821,1.6828,1.6875,1.6902,1.6862,1.6862,1.687,1.693,1.6948,1.6954,1.7026,1.6975,1.6979,1.6982,1.6984,1.7144,1.7146,0,0,0,0,0,0,1.6721,1.6734,1.6837,1.6841,1.6772,1.6824,1.6833,1.6857,1.6901,1.6906,1.6872,1.687,1.6941,1.6949,1.6956,1.7025,1.698,1.6984,1.6986,1.7143,1.7145,1.7147,0,0,0,0,0,0,1.6718,1.6731,1.6834,1.6788,1.6801,1.6828,1.6856,1.686,1.6878,1.6909,1.6913,1.6885,1.694,1.695,1.7002,1.7028,1.6986,1.699,1.7141,1.7143,1.7146,1.7163,0,0,0,0,0,0,1.6714,1.6729,1.6751,1.6788,1.6803,1.6879,1.6857,1.6862,1.6885,1.6884,1.6923,1.6928,1.694,1.6996,1.7007,1.7033,1.6993,1.7139,1.7142,1.7145,1.716,1.7166,1.717,0,0,0,0,0,1.6709,1.6753,1.6752,1.6765,1.6831,1.688,1.6889,1.6901,1.6887,1.6909,1.6929,1.6926,1.7023,1.7001,1.7014,1.7041,1.7137,1.7141,1.7145,1.7158,1.7164,1.717,0,0,0,0,0,0,1.6719,1.6758,1.6758,1.6815,1.6844,1.688,1.6908,1.6908,1.6942,1.694,1.6954,1.6963,1.7015,1.7033,1.7009,1.7098,1.7078,1.7085,1.7084,1.7091,1.7096,1.709,1.6997,0,0,0,0,0,1.6728,1.6764,1.6796,1.6844,1.6858,1.688,1.6902,1.691,1.694,1.6953,1.6977,1.7007,1.7044,1.7068,1.7104,1.7162,1.7171,1.7187,1.7192,1.7196,1.7202,1.7234,1.7242,1.7159,1.7159,1.7159,0,0,1.6746,1.6772,1.6794,1.6846,1.687,1.6907,1.6891,1.6931,1.6959,1.6959,1.701,1.7028,1.7063,1.7118,1.7144,1.7135,1.7227,1.7201,1.7204,1.7208,1.7239,1.7246,1.7253,1.7161,1.7161,1.7161,0,0,1.6799,1.6822,1.6864,1.6887,1.6923,1.6937,1.6947,1.6983,1.6995,1.7046,1.7046,1.708,1.7143,1.7168,1.7189,1.725,1.7249,1.7261,1.7288,1.7319,1.7325,1.7331,1.7353,1.7361,1.7266,1.7267,1.7267,0,1.6817,1.6874,1.6885,1.6926,1.6949,1.695,1.6992,1.7014,1.706,1.7076,1.7065,1.7145,1.7168,1.7229,1.7244,1.7261,1.7273,1.7257,1.7323,1.733,1.7335,1.7356,1.7365,1.7268,1.7268,1.7267,1.7267,0,1.6895,1.6934,1.6963,1.7007,1.7033,1.7074,1.7092,1.7117,1.7121,1.7137,1.7189,1.7217,1.7258,1.7273,1.7278,1.7335,1.7328,1.732,1.7301,1.7344,1.7364,1.7372,1.727,1.7269,1.7269,1.7268,0,0,1.6957,1.7005,1.7016,1.7035,1.7074,1.7105,1.7146,1.7186,1.7207,1.7238,1.7273,1.7326,1.7319,1.7343,1.735,1.7377,1.7424,1.7366,1.7367,1.7376,1.7489,1.7495,1.7504,1.7423,1.7425,1.7426,1.7486,0,1.7014,1.7086,1.7098,1.7162,1.7198,1.7199,1.7235,1.7262,1.7278,1.731,1.7327,1.7365,1.7352,1.7367,1.7393,1.7413,1.7447,1.7409,1.7456,1.7458,1.7448,1.7514,1.7521,1.7576,1.7494,1.7495,1.7496,0,1.709,1.7123,1.719,1.7224,1.7239,1.7271,1.7309,1.734,1.7371,1.738,1.7406,1.7411,1.7453,1.7431,1.7491,1.7464,1.7484,1.7497,1.7499,1.7505,1.748,1.7522,1.7594,1.7602,1.7508,1.7507,1.7507,0,1.7129,1.7189,1.7238,1.7254,1.7294,1.7317,1.7335,1.7364,1.7387,1.742,1.7435,1.7473,1.7493,1.7522,1.7536,1.7519,1.7594,1.7574,1.7603,1.7603,1.762,1.7619,1.7696,1.7632,1.7632,1.7632,1.7631,0,1.7192,1.7233,1.7255,1.7285,1.7331,1.7344,1.7389,1.7407,1.7433,1.7466,1.7469,1.75,1.7517,1.755,1.7562,1.7609,1.7618,1.7627,1.763,1.7627,1.7626,1.7641,1.7638,1.7634,1.7633,1.7633,1.7633,0,1.7243,1.726,1.7312,1.7345,1.7355,1.7387,1.7416,1.7445,1.746,1.7501,1.7512,1.7535,1.7575,1.7592,1.764,1.7648,1.7702,1.7702,1.7692,1.7693,1.7722,1.7719,1.7812,1.7825,1.7751,1.7752,1.7753,0,1.7282,1.7314,1.735,1.7373,1.7391,1.7427,1.745,1.7463,1.7488,1.7525,1.755,1.7589,1.7622,1.7685,1.7706,1.7743,1.7744,1.7774,1.775,1.7746,1.7745,1.7743,1.7747,1.7779,1.778,1.778,1.7781,0,1.735,1.7357,1.739,1.7427,1.7454,1.7484,1.7513,1.7531,1.7548,1.7576,1.7616,1.7641,1.769,1.773,1.7768,1.7786,1.7787,1.7788,1.7797,1.7795,1.7788,1.7793,1.7704,1.7786,1.7786,1.7785,1.7785,1.7785,1.7397,1.7425,1.7455,1.7492,1.7515,1.7542,1.757,1.7588,1.7622,1.7663,1.7669,1.7712,1.7742,1.7794,1.7813,1.7848,1.784,1.7853,1.7856,1.7859,1.7861,1.7782,1.7855,1.7854,1.7854,1.7854,1.7854,0,1.7465,1.7484,1.7519,1.7558,1.7588,1.7585,1.7616,1.7641,1.7679,1.7706,1.7738,1.7784,1.7822,1.7846,1.7884,1.7907,1.7908,1.7917,1.7915,1.792,1.7866,1.7854,1.7915,1.7915,1.7915,1.7915,1.7915,1.7915,1.7505,1.7552,1.7562,1.7621,1.7639,1.7681,1.77,1.7724,1.7746,1.7798,1.7829,1.7844,1.7871,1.7911,1.7945,1.7952,1.7966,1.7975,1.7981,1.793,1.7924,1.7917,1.7907,1.7978,1.7978,1.8032,1.8032,1.8033]}]]